{"data":{"norad_id":67661,"epoch":"2026-09-18T21:31:47.121024Z","epoch_age_seconds":207452,"freshness":"STALE","line1":"1 67661U 26022P   26261.89707316  .00014419  00000+0  44798-3 0  9999","line2":"2 67661  97.2861 293.5167 0000889 152.0706 208.0585 15.33453079 35185","mean_motion":15.33453079,"eccentricity":8.89e-5,"inclination_deg":97.2861,"raan_deg":293.5167,"arg_perigee_deg":152.0706,"mean_anomaly_deg":208.0585,"bstar":0.00044798,"rev_number":3518,"period_min":93.905709911845,"perigee_km":464.91073613313,"apogee_km":466.12753819432,"semimajor_km":6843.6561371637,"source":"CELESTRAK","updated_at":"2026-09-20T09:00:43.622124Z"}}